Meteo Giornale » Osservazioni meteo Spagna » Sevilla-San Pablo
ore: 16:00 - Osservazioni Meteo Sevilla-San Pablo
Lat. 37° 25' N Lon. 5° 54' W Alt. 34 metri s.l.m.
35 °C
Sereno
Temp. 24 Ore
19 °C
37 °C
Sud/Sud-Ovest
7.4 Km/h
Dew point 13 °C
Umidità 26 %
Visibilità 10 Km
Il sole sorge alle ore 07:54
Il sole tramonta alle ore 20:53
| Data e Ora | Cielo e Fenomeni | T °C | DP °C | Um. % | Pres. hPa | Vis. km | Vento km/h | |
|---|---|---|---|---|---|---|---|---|
| Oggi h: 16:00 | Sereno | 35 | 13 | 26 | 1015 | 10 | S/SO 7.4 | |
| Oggi h: 15:30 | Sereno | 35 | 13 | 26 | 1016 | 10 | N 5.5 | |
| Oggi h: 15:00 | Sereno | 33 | 12 | 27 | 1016 | 10 | O 7.4 | |
| Oggi h: 14:30 | Sereno | 33 | 12 | 27 | 1016 | 10 | O/SO 7.4 | |
| Oggi h: 14:00 | Sereno | 32 | 11 | 27 | 1016 | 10 | SO 7.4 | |
| Oggi h: 13:30 | Sereno | 31 | 11 | 29 | 1017 | 10 | O/NO 9.3 | |
| Oggi h: 13:00 | Sereno | 31 | 11 | 29 | 1017 | 10 | O 7.4 | |
| Oggi h: 12:30 | Sereno | 30 | 10 | 28 | 1017 | 10 | N 3.7 | |
| Oggi h: 12:00 | Sereno | 29 | 12 | 35 | 1017 | 10 | N 1.8 | |
| Oggi h: 11:30 | Sereno | 29 | 12 | 35 | 1017 | 10 | N 1.8 | |
| Oggi h: 11:00 | Sereno | 27 | 12 | 39 | 1017 | 10 | N 0 | |
| Oggi h: 10:30 | Sereno | 26 | 11 | 39 | 1017 | 10 | N 3.7 | |
| Oggi h: 10:00 | Sereno | 24 | 11 | 43 | 1017 | 10 | N 1.8 | |
| Oggi h: 09:30 | Sereno | 23 | 11 | 46 | 1017 | 10 | N 5.5 | |
| Oggi h: 09:00 | Sereno | 21 | 11 | 52 | 1017 | 10 | N 5.5 | |
| Oggi h: 08:30 | Sereno | 20 | 11 | 56 | 1016 | 10 | N 3.7 | |
| Oggi h: 08:00 | Sereno | 19 | 11 | 59 | 1016 | 10 | N 0 | |
| Oggi h: 07:30 | Sereno | 19 | 10 | 55 | 1016 | 10 | N 1.8 | |
| Oggi h: 07:00 | Sereno | 20 | 11 | 56 | 1015 | 10 | N/NE 7.4 | |
| Oggi h: 06:30 | Sereno | 20 | 12 | 59 | 1016 | 10 | N 0 | |
| Oggi h: 06:00 | Sereno | 20 | 12 | 59 | 1016 | 10 | N 1.8 | |
| Oggi h: 05:30 | Sereno | 21 | 12 | 56 | 1016 | 10 | N 5.5 | |
| Oggi h: 05:00 | Sereno | 21 | 13 | 60 | 1016 | 10 | N 1.8 | |
| Oggi h: 04:30 | Sereno | 22 | 13 | 56 | 1016 | 10 | N 1.8 | |
| Oggi h: 04:00 | Sereno | 23 | 12 | 49 | 1016 | 10 | O/SO 7.4 | |
| Oggi h: 03:30 | Sereno | 23 | 12 | 49 | 1016 | 10 | SO 7.4 | |
| Oggi h: 03:00 | Sereno | 24 | 12 | 47 | 1016 | 10 | SO 7.4 | |
| Oggi h: 02:30 | Sereno | 24 | 11 | 43 | 1016 | 10 | S 13 | |
| Oggi h: 02:00 | Sereno | 24 | 11 | 43 | 1016 | 10 | S 14.8 | |
| Oggi h: 01:30 | Sereno | 24 | 10 | 41 | 1016 | 10 | S 16.7 | |
| Oggi h: 01:00 | Sereno | 25 | 10 | 38 | 1016 | 10 | S 16.7 | |
| Oggi h: 00:30 | Sereno | 25 | 10 | 38 | 1016 | 10 | N 5.5 | |
| Oggi h: 00:00 | Sereno | 27 | 10 | 34 | 1016 | 10 | S/SO 13 | |
| Ieri h: 23:30 | Sereno | 28 | 10 | 32 | 1016 | 10 | SO 9.3 | |
| Ieri h: 23:00 | Sereno | 30 | 8 | 25 | 1016 | 10 | O/SO 9.3 | |
| Ieri h: 22:30 | Sereno | 31 | 7 | 22 | 1015 | 10 | O 16.7 | |
| Ieri h: 22:00 | Sereno | 31 | 7 | 22 | 1015 | 10 | O/SO 11.1 | |
| Ieri h: 21:30 | Sereno | 33 | 7 | 19 | 1014 | 10 | O/SO 14.8 | |
| Ieri h: 21:00 | Sereno | 34 | 9 | 21 | 1014 | 10 | O/SO 14.8 | |
| Ieri h: 20:30 | Sereno | 35 | 10 | 21 | 1014 | 10 | O/SO 16.7 | |
| Ieri h: 20:00 | Sereno | 35 | 12 | 24 | 1014 | 10 | O/SO 14.8 | |
| Ieri h: 19:30 | Sereno | 36 | 10 | 20 | 1014 | 10 | O/SO 14.8 | |
| Ieri h: 19:00 | Sereno | 36 | 12 | 23 | 1014 | 10 | O/SO 13 | |
| Ieri h: 18:30 | Sereno | 37 | 10 | 19 | 1014 | 10 | S/SO 9.3 | |
| Ieri h: 18:00 | Sereno | 37 | 8 | 17 | 1014 | 10 | S/SO 11.1 | |
| Ieri h: 17:30 | Sereno | 37 | 9 | 18 | 1014 | 10 | O/SO 9.3 | |
| Ieri h: 17:00 | Sereno | 36 | 9 | 19 | 1014 | 10 | O 14.8 | |



